sat.trackr.live / text

‹ back to catalog

STARLINK-37222

NORAD 68663 · 2026-077B

PAYLOAD ACTIVE UNKNOWN

§ Identity

Operator
Country
US
Launch date
2026-04-11
Launch site
AFWTR
Launch vehicle
Mass (kg)
RCS (m²)

Purposes: comms

External: N2YO · Heavens-Above · Gunter

§ Orbital elements

Epoch: 2026-05-25T02:10:42.750048Z

Period
93.91 min
Inclination
97.2855°
Eccentricity
0.0001511
Mean motion
15.33446793 rev/d
Perigee alt
464.5 km
Apogee alt
466.6 km
Semi-major
6,843.7 km
B*
2.8347e-4
RAAN
16.6223°
Arg perigee
93.6825°
Mean anomaly
266.4591°
Rev number
686

§ Raw data

STARLINK-372221 68663U 26077B   26145.09077257  .00009088  00000+0  28347-3 0  99972 68663  97.2855  16.6223 0001511  93.6825 266.4591 15.33446793  6866

JSON: /api/v1/satellites/68663 · /tle

For live sub-satellite position, see the globe view (requires WebGL).

§ Visibility from observer

Set your observer location to see the next 7 days of passes ≥ 10°. The values pass through the URL so the page stays shareable.

No JS? Fill the form by hand. The geolocation button needs JavaScript.